This is the latest recevied weather packets stored in our database for station/object KF0TNT. If no packets are shown the sender has not sent any weather packets the latest 10 day(s).
| Time | Temp. | Humidity | Pressure | Rain* | Wind** | Luminosity | Snow |
|---|---|---|---|---|---|---|---|
| 1777950849 | 6.67° C | 84% | 1014 hPa | 0.51 mm | - | 0 W/m² | - |
| 1777950545 | 6.67° C | 84% | 1013.9 hPa | 0.51 mm | - | 0 W/m² | - |
| 1777950241 | 7.22° C | 84% | 1013.5 hPa | 0.51 mm | - | 0 W/m² | - |
| 1777949937 | 7.22° C | 82% | 1014 hPa | 0.51 mm | - | 0 W/m² | - |
| 1777949635 | 7.22° C | 81% | 1014.1 hPa | 0.51 mm | - | 0 W/m² | - |
| 1777949334 | 7.78° C | 81% | 1014 hPa | 0 mm | - | 0 W/m² | - |
| 1777949031 | 7.22° C | 80% | 1014.3 hPa | 0 mm | - | 0 W/m² | - |
| 1777948727 | 7.78° C | 81% | 1014 hPa | 0 mm | - | 0 W/m² | - |
| 1777948424 | 7.78° C | 79% | 1014 hPa | 0 mm | - | 0 W/m² | - |
| 1777948122 | 7.78° C | 80% | 1014 hPa | 0 mm | - | 0 W/m² | - |
| 1777947818 | 7.22° C | 79% | 1013.9 hPa | 0.51 mm | - | 0 W/m² | - |
| 1777947516 | 7.22° C | 80% | 1014 hPa | 0.51 mm | - | 0 W/m² | - |
| 1777947212 | 7.22° C | 77% | 1013.9 hPa | 0 mm | - | 0 W/m² | - |
| 1777946908 | 7.22° C | 78% | 1013.8 hPa | 0.51 mm | - | 0 W/m² | - |
| 1777946604 | 7.78° C | 77% | 1014.1 hPa | 0.51 mm | - | 0 W/m² | - |
| 1777946301 | 7.78° C | 77% | 1013.9 hPa | 0 mm | - | 1 W/m² | - |
| 1777945998 | 7.78° C | 77% | 1013.6 hPa | 0 mm | - | 2 W/m² | - |
| 1777945695 | 7.78° C | 75% | 1013.6 hPa | 0.51 mm | - | 2 W/m² | - |
| 1777945392 | 7.78° C | 76% | 1013.6 hPa | 0.51 mm | - | 4 W/m² | - |
| 1777945088 | 8.33° C | 72% | 1013.2 hPa | 1.27 mm | - | 6 W/m² | - |
| 1777944786 | 8.33° C | 69% | 1013.5 hPa | 1.78 mm | - | 7 W/m² | - |
| 1777944484 | 8.33° C | 69% | 1013.6 hPa | 1.27 mm | - | 8 W/m² | - |
| 1777944181 | 9.44° C | 63% | 1013.8 hPa | 1.27 mm | - | 9 W/m² | - |
| 1777943877 | 10° C | 59% | 1013.8 hPa | 0 mm | - | 8 W/m² | - |
| 1777943574 | 10.56° C | 56% | 1013.5 hPa | 0 mm | - | 8 W/m² | - |
* Rain latest hour (hover to see other rain measurements)
** Current wind speed in m/s (hover to see current wind gust speed)